| time (UTC) | temp F | wind direction | speed MPH | gust MPH | rain 1hr in | rain 24hr in | rain mn in | humidity % | barometer mb |
| 20260510033025 | 68 | 9 | 4.0 | 10.0 | 0.00 | 0.00 | 0.00 | 47 | 1025.4 |
| 20260510032004 | 68 | 4 | 4.0 | 11.0 | 0.00 | 0.00 | 0.00 | 50 | 1025.5 |
| 20260510031003 | 67 | 13 | 5.0 | 12.0 | 0.00 | 0.00 | 0.00 | 50 | 1025.7 |
| 20260510030025 | 67 | 19 | 4.0 | 11.0 | 0.00 | 0.00 | 0.00 | 50 | 1025.8 |
| 20260510025003 | 66 | 56 | 4.0 | 10.0 | 0.00 | 0.00 | 0.00 | 52 | 1025.9 |
| 20260510024004 | 66 | 43 | 3.0 | 8.0 | 0.00 | 0.00 | 0.00 | 53 | 1026.1 |
| 20260510023003 | 64 | 50 | 4.0 | 11.0 | 0.00 | 0.00 | 0.00 | 54 | 1026.3 |
| 20260510022024 | 64 | 51 | 2.0 | 11.0 | 0.00 | 0.00 | 0.00 | 55 | 1026.3 |
| 20260510021003 | 63 | 52 | 3.0 | 9.0 | 0.00 | 0.00 | 0.00 | 57 | 1026.5 |
| 20260510020004 | 62 | 42 | 3.0 | 9.0 | 0.00 | 0.00 | 0.00 | 57 | 1026.7 |
| 20260510015003 | 62 | 35 | 3.0 | 7.0 | 0.00 | 0.00 | 0.00 | 59 | 1026.7 |
| 20260510014003 | 61 | 27 | 3.0 | 9.0 | 0.00 | 0.00 | 0.00 | 59 | 1026.8 |
| 20260510013024 | 60 | 68 | 3.0 | 10.0 | 0.00 | 0.00 | 0.00 | 61 | 1026.8 |
| 20260510012003 | 60 | 39 | 3.0 | 8.0 | 0.00 | 0.00 | 0.00 | 61 | 1026.7 |
| 20260510011003 | 58 | 73 | 2.0 | 7.0 | 0.00 | 0.00 | 0.00 | 64 | 1026.7 |
| 20260510010005 | 57 | 41 | 3.0 | 10.0 | 0.00 | 0.00 | 0.00 | 66 | 1026.8 |
| 20260510005003 | 55 | 56 | 3.0 | 11.0 | 0.00 | 0.00 | 0.00 | 69 | 1026.7 |
| 20260510004024 | 54 | 49 | 2.0 | 10.0 | 0.00 | 0.00 | 0.00 | 73 | 1026.7 |
| 20260510003004 | 52 | 146 | 2.0 | 5.0 | 0.00 | 0.00 | 0.00 | 73 | 1026.7 |
| 20260510002004 | 52 | 128 | 2.0 | 6.0 | 0.00 | 0.00 | 0.00 | 74 | 1026.8 |
| 20260510001003 | 51 | 96 | 1.0 | 5.0 | 0.00 | 0.00 | 0.00 | 74 | 1026.7 |
| 20260510000004 | 51 | 116 | 1.0 | 6.0 | 0.00 | 0.00 | 0.00 | 74 | 1026.8 |
| 20260509235024 | 51 | 177 | 0.0 | 4.0 | 0.00 | 0.00 | 0.00 | 74 | 1026.8 |
| 20260509234003 | 50 | 164 | 1.0 | 4.0 | 0.00 | 0.00 | 0.00 | 74 | 1026.8 |
| 20260509233003 | 50 | 84 | 0.0 | 2.0 | 0.00 | 0.00 | 0.00 | 74 | 1026.7 |
| 20260509232003 | 50 | 84 | 0.0 | 2.0 | 0.00 | 0.00 | 0.00 | 73 | 1026.5 |
| 20260509231003 | 50 | 84 | 0.0 | 2.0 | 0.00 | 0.00 | 0.00 | 73 | 1026.4 |
| 20260509230024 | 51 | 88 | 0.0 | 5.0 | 0.00 | 0.00 | 0.00 | 73 | 1026.5 |
| 20260509225004 | 51 | 114 | 0.0 | 4.0 | 0.00 | 0.00 | 0.00 | 73 | 1026.5 |
| 20260509224004 | 51 | 115 | 0.0 | 1.0 | 0.00 | 0.00 | 0.00 | 72 | 1026.6 |
| 20260509223004 | 51 | 97 | 0.0 | 6.0 | 0.00 | 0.00 | 0.00 | 72 | 1026.5 |
| 20260509222004 | 51 | 69 | 1.0 | 4.0 | 0.00 | 0.00 | 0.00 | 72 | 1026.3 |
| 20260509221003 | 51 | 138 | 1.0 | 6.0 | 0.00 | 0.00 | 0.00 | 72 | 1026.1 |
| 20260509220004 | 51 | 38 | 1.0 | 3.0 | 0.00 | 0.00 | 0.00 | 72 | 1026.1 |
| 20260509215003 | 51 | 85 | 1.0 | 7.0 | 0.00 | 0.00 | 0.00 | 72 | 1026.1 |
| 20260509214004 | 51 | 85 | 1.0 | 4.0 | 0.00 | 0.00 | 0.00 | 72 | 1026.0 |
| 20260509213004 | 51 | 92 | 1.0 | 5.0 | 0.00 | 0.00 | 0.00 | 72 | 1026.0 |
| 20260509212004 | 51 | 119 | 1.0 | 5.0 | 0.00 | 0.00 | 0.00 | 72 | 1026.0 |
| 20260509211004 | 51 | 95 | 1.0 | 4.0 | 0.00 | 0.00 | 0.00 | 72 | 1025.9 |
| 20260509210004 | 51 | 144 | 1.0 | 5.0 | 0.00 | 0.00 | 0.00 | 72 | 1025.9 |
| 20260509205004 | 51 | 160 | 1.0 | 4.0 | 0.00 | 0.00 | 0.00 | 72 | 1025.9 |
| 20260509204004 | 51 | 175 | 1.0 | 6.0 | 0.00 | 0.00 | 0.00 | 71 | 1025.6 |
| 20260509203004 | 51 | 226 | 1.0 | 3.0 | 0.00 | 0.00 | 0.00 | 70 | 1025.5 |
| 20260509202003 | 51 | 226 | 2.0 | 3.0 | 0.00 | 0.00 | 0.00 | 69 | 1025.4 |
| 20260509201025 | 52 | 226 | 1.0 | 3.0 | 0.00 | 0.00 | 0.00 | 69 | 1025.5 |
| 20260509200004 | 52 | 72 | 1.0 | 4.0 | 0.00 | 0.00 | 0.00 | 69 | 1025.4 |
| 20260509195004 | 52 | 171 | 1.0 | 4.0 | 0.00 | 0.00 | 0.00 | 69 | 1025.5 |
| 20260509194003 | 52 | 159 | 1.0 | 4.0 | 0.00 | 0.00 | 0.00 | 68 | 1025.5 |
| 20260509193003 | 52 | 136 | 1.0 | 4.0 | 0.00 | 0.00 | 0.00 | 68 | 1025.5 |
| 20260509192003 | 52 | 72 | 1.0 | 4.0 | 0.00 | 0.00 | 0.00 | 68 | 1025.5 |
| 20260509191004 | 52 | 112 | 1.0 | 3.0 | 0.00 | 0.00 | 0.00 | 68 | 1025.5 |
| 20260509190004 | 52 | 135 | 1.0 | 6.0 | 0.00 | 0.00 | 0.00 | 68 | 1025.6 |
| 20260509185004 | 52 | 152 | 1.0 | 6.0 | 0.00 | 0.00 | 0.00 | 68 | 1025.5 |
| 20260509184004 | 52 | 94 | 2.0 | 6.0 | 0.00 | 0.00 | 0.00 | 68 | 1025.6 |
| 20260509183025 | 52 | 72 | 1.0 | 7.0 | 0.00 | 0.00 | 0.00 | 68 | 1025.5 |
| 20260509182004 | 52 | 93 | 0.0 | 4.0 | 0.00 | 0.00 | 0.00 | 67 | 1025.5 |
| 20260509181004 | 52 | 89 | 1.0 | 3.0 | 0.00 | 0.00 | 0.00 | 67 | 1025.7 |
| 20260509180004 | 51 | 88 | 1.0 | 3.0 | 0.00 | 0.00 | 0.00 | 68 | 1025.7 |
| 20260509175004 | 51 | 88 | 2.0 | 4.0 | 0.00 | 0.00 | 0.00 | 68 | 1025.7 |
| 20260509174003 | 52 | 89 | 2.0 | 3.0 | 0.00 | 0.00 | 0.00 | 66 | 1025.7 |
| 20260509173004 | 52 | 89 | 1.0 | 3.0 | 0.00 | 0.00 | 0.00 | 66 | 1025.7 |
| 20260509172004 | 52 | 90 | 1.0 | 4.0 | 0.00 | 0.00 | 0.00 | 67 | 1025.6 |
| 20260509171004 | 51 | 76 | 1.0 | 6.0 | 0.00 | 0.00 | 0.00 | 68 | 1025.7 |
| 20260509170004 | 51 | 74 | 1.0 | 3.0 | 0.00 | 0.00 | 0.00 | 67 | 1025.7 |
| 20260509165003 | 52 | 74 | 1.0 | 2.0 | 0.00 | 0.00 | 0.00 | 66 | 1025.7 |
| 20260509164003 | 52 | 74 | 1.0 | 3.0 | 0.00 | 0.00 | 0.00 | 66 | 1025.7 |
| 20260509163003 | 52 | 74 | 1.0 | 3.0 | 0.00 | 0.00 | 0.00 | 64 | 1025.7 |
| 20260509162003 | 54 | 76 | 1.0 | 3.0 | 0.00 | 0.00 | 0.00 | 62 | 1025.7 |
| 20260509161003 | 54 | 77 | 1.0 | 3.0 | 0.00 | 0.00 | 0.00 | 61 | 1025.7 |
| 20260509160024 | 54 | 98 | 1.0 | 5.0 | 0.00 | 0.00 | 0.00 | 60 | 1025.7 |
| 20260509155003 | 54 | 100 | 2.0 | 4.0 | 0.00 | 0.00 | 0.00 | 61 | 1025.8 |
| 20260509154003 | 54 | 100 | 1.0 | 3.0 | 0.00 | 0.00 | 0.00 | 62 | 1025.9 |
| 20260509153003 | 53 | 100 | 1.0 | 2.0 | 0.00 | 0.00 | 0.00 | 63 | 1025.8 |
| 20260509152004 | 53 | 100 | 1.0 | 2.0 | 0.00 | 0.00 | 0.00 | 64 | 1025.8 |
| 20260509151004 | 53 | 100 | 1.0 | 2.0 | 0.00 | 0.00 | 0.00 | 64 | 1025.9 |
| 20260509150004 | 53 | 100 | 1.0 | 3.0 | 0.00 | 0.00 | 0.00 | 64 | 1026.0 |
| 20260509145003 | 53 | 100 | 1.0 | 3.0 | 0.00 | 0.00 | 0.00 | 64 | 1026.0 |
| 20260509144003 | 53 | 100 | 2.0 | 3.0 | 0.00 | 0.00 | 0.00 | 64 | 1026.0 |
| 20260509143003 | 53 | 100 | 2.0 | 3.0 | 0.00 | 0.00 | 0.00 | 63 | 1026.0 |
| 20260509142003 | 53 | 101 | 2.0 | 3.0 | 0.00 | 0.00 | 0.00 | 63 | 1026.1 |
| 20260509141003 | 53 | 103 | 2.0 | 3.0 | 0.00 | 0.00 | 0.00 | 63 | 1026.0 |
| 20260509140004 | 53 | 105 | 1.0 | 2.0 | 0.00 | 0.00 | 0.00 | 63 | 1025.9 |
| 20260509135003 | 53 | 105 | 1.0 | 3.0 | 0.00 | 0.00 | 0.00 | 64 | 1025.9 |
| 20260509134003 | 53 | 105 | 1.0 | 3.0 | 0.00 | 0.00 | 0.00 | 64 | 1025.9 |
| 20260509133004 | 53 | 105 | 1.0 | 3.0 | 0.00 | 0.00 | 0.00 | 63 | 1025.9 |
| 20260509132004 | 54 | 105 | 1.0 | 3.0 | 0.00 | 0.00 | 0.00 | 62 | 1025.9 |
| 20260509131004 | 54 | 107 | 1.0 | 3.0 | 0.00 | 0.00 | 0.00 | 62 | 1025.8 |
| 20260509130004 | 54 | 109 | 1.0 | 2.0 | 0.00 | 0.00 | 0.00 | 62 | 1025.8 |
| 20260509125004 | 54 | 109 | 1.0 | 2.0 | 0.00 | 0.00 | 0.00 | 62 | 1025.7 |
| 20260509124004 | 54 | 109 | 1.0 | 3.0 | 0.00 | 0.00 | 0.00 | 62 | 1025.6 |
| 20260509123004 | 54 | 109 | 0.0 | 2.0 | 0.00 | 0.00 | 0.00 | 61 | 1025.6 |
| 20260509122004 | 55 | 109 | 0.0 | 3.0 | 0.00 | 0.00 | 0.00 | 61 | 1025.5 |
| 20260509121004 | 55 | 98 | 1.0 | 4.0 | 0.00 | 0.00 | 0.00 | 61 | 1025.4 |
| 20260509120004 | 55 | 90 | 1.0 | 4.0 | 0.00 | 0.00 | 0.00 | 62 | 1025.5 |
| 20260509115004 | 55 | 88 | 1.0 | 2.0 | 0.00 | 0.00 | 0.00 | 62 | 1025.5 |
| 20260509114004 | 56 | 83 | 1.0 | 5.0 | 0.00 | 0.00 | 0.00 | 61 | 1025.4 |
| 20260509113025 | 56 | 80 | 1.0 | 3.0 | 0.00 | 0.00 | 0.00 | 61 | 1025.4 |
| 20260509112004 | 56 | 82 | 1.0 | 2.0 | 0.00 | 0.00 | 0.00 | 61 | 1025.4 |
| 20260509111004 | 57 | 71 | 1.0 | 4.0 | 0.00 | 0.00 | 0.00 | 59 | 1025.3 |
| 20260509110004 | 57 | 39 | 1.0 | 5.0 | 0.00 | 0.00 | 0.00 | 59 | 1025.4 |
| 20260509105024 | 57 | 25 | 0.0 | 4.0 | 0.00 | 0.00 | 0.00 | 60 | 1025.5 |
| 20260509104004 | 57 | 25 | 1.0 | 3.0 | 0.00 | 0.00 | 0.00 | 60 | 1025.3 |
| 20260509103004 | 57 | 25 | 0.0 | 3.0 | 0.00 | 0.00 | 0.00 | 63 | 1025.3 |
| 20260509102003 | 58 | 25 | 1.0 | 2.0 | 0.00 | 0.00 | 0.00 | 63 | 1025.3 |
| 20260509101004 | 58 | 25 | 0.0 | 1.0 | 0.00 | 0.00 | 0.00 | 61 | 1025.2 |
| 20260509100004 | 59 | 25 | 1.0 | 2.0 | 0.00 | 0.00 | 0.00 | 62 | 1025.2 |
| 20260509095004 | 60 | 25 | 1.0 | 2.0 | 0.00 | 0.00 | 0.00 | 61 | 1025.1 |
| 20260509094004 | 61 | 25 | 2.0 | 3.0 | 0.00 | 0.00 | 0.00 | 59 | 1025.0 |
| 20260509093004 | 63 | 25 | 1.0 | 2.0 | 0.00 | 0.00 | 0.00 | 56 | 1024.9 |
| 20260509092025 | 65 | 25 | 2.0 | 3.0 | 0.00 | 0.00 | 0.00 | 52 | 1024.9 |
| 20260509091004 | 68 | 25 | 2.0 | 3.0 | 0.00 | 0.00 | 0.00 | 48 | 1024.9 |
| 20260509090004 | 69 | 25 | 1.0 | 1.0 | 0.00 | 0.00 | 0.00 | 45 | 1024.8 |
| 20260509085004 | 70 | 25 | 1.0 | 2.0 | 0.00 | 0.00 | 0.00 | 40 | 1024.8 |
| 20260509084004 | 71 | 25 | 0.0 | 4.0 | 0.00 | 0.00 | 0.00 | 38 | 1024.8 |
| 20260509083025 | 72 | 24 | 1.0 | 4.0 | 0.00 | 0.00 | 0.00 | 37 | 1024.7 |
| 20260509082004 | 72 | 28 | 2.0 | 4.0 | 0.00 | 0.00 | 0.00 | 36 | 1024.7 |
| 20260509081004 | 72 | 96 | 2.0 | 8.0 | 0.00 | 0.00 | 0.00 | 35 | 1024.7 |
| 20260509080004 | 72 | 61 | 2.0 | 7.0 | 0.00 | 0.00 | 0.00 | 35 | 1024.7 |
| 20260509075004 | 73 | 19 | 2.0 | 6.0 | 0.00 | 0.00 | 0.00 | 35 | 1024.5 |
| 20260509074003 | 72 | 63 | 1.0 | 4.0 | 0.00 | 0.00 | 0.00 | 36 | 1024.4 |
| 20260509073003 | 72 | 60 | 2.0 | 7.0 | 0.00 | 0.00 | 0.00 | 37 | 1024.3 |
| 20260509072003 | 72 | 88 | 3.0 | 7.0 | 0.00 | 0.00 | 0.00 | 36 | 1024.2 |
| 20260509071003 | 72 | 65 | 3.0 | 10.0 | 0.00 | 0.00 | 0.00 | 37 | 1024.1 |
| 20260509070003 | 72 | 54 | 2.0 | 6.0 | 0.00 | 0.00 | 0.00 | 36 | 1024.0 |
| 20260509065003 | 71 | 31 | 3.0 | 7.0 | 0.00 | 0.00 | 0.00 | 37 | 1024.0 |
| 20260509064003 | 71 | 94 | 3.0 | 11.0 | 0.00 | 0.00 | 0.00 | 38 | 1024.0 |
| 20260509063003 | 71 | 97 | 2.0 | 8.0 | 0.00 | 0.00 | 0.00 | 39 | 1024.0 |
| 20260509062003 | 71 | 65 | 3.0 | 10.0 | 0.00 | 0.00 | 0.00 | 39 | 1024.0 |
| 20260509061003 | 71 | 143 | 2.0 | 7.0 | 0.00 | 0.00 | 0.00 | 40 | 1024.1 |
| 20260509060004 | 71 | 77 | 3.0 | 11.0 | 0.00 | 0.00 | 0.00 | 39 | 1024.4 |
| 20260509055024 | 71 | 34 | 3.0 | 10.0 | 0.00 | 0.00 | 0.00 | 41 | 1024.5 |
| 20260509054004 | 70 | 17 | 5.0 | 13.0 | 0.00 | 0.00 | 0.00 | 41 | 1024.4 |
| 20260509053003 | 70 | 62 | 3.0 | 10.0 | 0.00 | 0.00 | 0.00 | 41 | 1024.6 |
| 20260509052003 | 70 | 87 | 3.0 | 10.0 | 0.00 | 0.00 | 0.00 | 44 | 1024.8 |
| 20260509051003 | 69 | 68 | 3.0 | 9.0 | 0.00 | 0.00 | 0.00 | 44 | 1024.8 |
| 20260509050003 | 69 | 53 | 3.0 | 15.0 | 0.00 | 0.00 | 0.00 | 43 | 1025.1 |
| 20260509045003 | 68 | 31 | 4.0 | 12.0 | 0.00 | 0.00 | 0.00 | 44 | 1025.2 |
| 20260509044003 | 68 | 78 | 3.0 | 11.0 | 0.00 | 0.00 | 0.00 | 44 | 1025.5 |
| 20260509043004 | 68 | 143 | 2.0 | 11.0 | 0.00 | 0.00 | 0.00 | 47 | 1025.7 |
| 20260509042025 | 68 | 63 | 2.0 | 9.0 | 0.00 | 0.00 | 0.00 | 46 | 1026.1 |
| 20260509041004 | 67 | 70 | 3.0 | 14.0 | 0.00 | 0.00 | 0.00 | 48 | 1026.2 |
| 20260509040004 | 67 | 52 | 4.0 | 9.0 | 0.00 | 0.00 | 0.00 | 48 | 1026.5 |
| 20260509035004 | 67 | 40 | 3.0 | 10.0 | 0.00 | 0.00 | 0.00 | 49 | 1026.5 |
| 20260509034004 | 66 | 48 | 4.0 | 11.0 | 0.00 | 0.00 | 0.00 | 48 | 1026.9 |